www.pogodaiklimat.ru
ПОГОДА в Краун-Пойнте
Время
(UTC), дата
03 18.05
06 18.05
09 18.05
12 18.05
15 18.05
18 18.05
21 18.05
00 19.05
03 19.05
06 19.05
09 19.05
12 19.05
15 19.05
18 19.05
21 19.05
00 20.05
03 20.05
06 20.05
12 20.05
15 20.05
18 20.05
21 20.05
00 21.05
03 21.05
06 21.05
09 21.05
12 21.05
15 21.05
18 21.05
21 21.05
00 22.05
03 22.05
06 22.05
09 22.05
12 22.05
15 22.05
18 22.05
21 22.05
00 23.05
03 23.05
06 23.05
09 23.05
12 23.05
15 23.05
18 23.05
21 23.05
00 24.05
03 24.05
06 24.05
09 24.05
12 24.05
15 24.05
18 24.05
21 24.05
00 25.05
Ветер
(напр.,м/с)
Видим. Явления Облачность Т
(С)
Тd
(С)
f
(%)
Тe
(С)
Тes
(С)
Комфортность P
(гПа)
Po
(гПа)
Тmin
(С)
Tmax
(С)
R
(мм)
R24
(мм)
S
(см)
В 5 12 км пыль 1/1 300 м
[Cu Sc As trans Cs]
+26.2 +22.4 80 +34 +34 очень
душно
1016.5 1015.8
В 3 12 км пыль 1/1 480 м
[Cu med, cong]
+25.5 +22.1 81 +33 +33 очень
душно
1015.0 1013.0 +25.5 +32.3
В 3 12 км осадки на расстоянии 1/1 300 м
[Cu Sc As trans Cs]
+24.8 +21.6 82 +32 +32 очень
душно
1014.9 1012.9
В 8 12 км пыль 3/1 540 м
[Cu hum Ci sp]
+28.7 +21.6 65 +37 +37 очень
душно
1015.9 1013.9 +24.8 +32.3 0.4
ЮВ 13 12 км пыль 9/0 300 м
[Ac As Cs]
+30.9 +21.5 57 +39 +39 очень
душно
1015.8 1013.8
ЮВ 13 12 км пыль 9/1 660 м
[Cu hum Cs]
+30.1 +20.8 58 +37 +37 очень
душно
1014.6 1012.6 +24.8 +31.9
В 10 12 км пыль 9/0 600 м
[Ac As Cs]
+29.3 +22.2 66 +38 +38 очень
душно
1014.4 1012.4
СВ 4 12 км пыль 9/1 540 м
[Cu hum Ci sp]
+26.6 +21.7 75 +34 +34 очень
душно
1015.5 1013.5 +24.8 +31.9
СВ 4 12 км пыль 9/0 300 м
[Ac As Cs]
+25.7 +21.9 80 +33 +33 очень
душно
1016.4 1014.4
СВ 3 12 км пыль 9/1 480 м
[Cu hum Ci sp]
+25.2 +21.7 81 +32 +32 очень
душно
1014.1 1012.1 +24.8 +31.9
СВ 3 12 км пыль 8/0 300 м
[Ac As Cs]
+24.6 +21.6 83 +31 +31 очень
душно
1014.1 1012.1
В 5 18 км пыль 9/1 570 м
[Cu Sc Ac trans Ci sp]
+28.8 +22.4 68 +38 +39 очень
душно
1014.9 1012.9 +24.5 +31.9
ЮВ 11 18 км пыль 9/9 300 м
[Cu med, cong Ac As Cs]
+30.4 +23.0 65 +41 +41 опасность
перегрева
1015.8 1013.8
ЮВ 10 18 км пыль 9/1 600 м
[Cu Sc Ac trans Cs]
+31.6 +22.3 58 +41 +41 опасность
перегрева
1014.0 1012.0 +24.5 +31.9
ЮВ 8 18 км пыль 9/9 300 м
[Cu med, cong Ac As Cs]
+29.9 +23.0 67 +40 +40 очень
душно
1012.8 1010.8
СВ 3 18 км пыль 9/1 480 м
[Cu Sc Ci sp]
+26.9 +21.5 72 +34 +34 очень
душно
1013.6 1011.6 +24.5 +31.9
штиль 0 18 км пыль 9/0 300 м
[Ac As Cs]
+26.6 +21.3 73 +34 +34 очень
душно
1015.0 1013.0
В 3 18 км пыль 9/1 480 м
[Cu Sc Ac As Ci sp]
+25.9 +22.4 81 +34 +34 очень
душно
1013.4 1011.4 +24.5 +31.9
ЮВ 7 20 км мгла 9/1 540 м
[Cu med, cong Ci sp]
+29.5 +24.0 72 +41 +42 опасность
перегрева
1014.8 1012.8 +25.4 +31.9
ЮВ 9 25 км 8/0 600 м
[Ac As Cs]
+30.8 +25.0 71 +44 +45 опасность
перегрева
1015.7 1013.7
ЮВ 10 25 км 6/4 450 м
[Cb cap Ci ing]
+30.3 +24.3 70 +42 +43 опасность
перегрева
1014.3 1012.3 +25.4 +32.3
В 17 10 км осадки на расстоянии {ливн. осадки} 9/0 300 м
[Ac As Cs]
+24.7 +21.2 81 +31 +31 очень
душно
1014.5 1012.5
В 12 15 км осадки на расстоянии {ливн. осадки} 6/3 480 м
[Cu Sc Ac trans Ci sp]
+26.3 +23.2 83 +35 +35 очень
душно
1015.0 1013.0 +24.2 +32.3 0.3
ЮВ 11 25 км 5/0 300 м
[Ac As Cs]
+27.0 +23.1 79 +36 +36 очень
душно
1013.9 1011.9
В 10 25 км 5/1 480 м
[Cu hum Ci sp]
+26.6 +23.5 83 +36 +36 очень
душно
1013.6 1011.6 +24.2 +32.3
В 6 25 км 4/1 480 м
[Cu hum Ci sp]
+26.4 +23.7 85 +36 +36 очень
душно
1013.4 1011.4
В 9 20 км мгла 9/6 480 м
[Cu Sc Ac As Ci sp]
+27.4 +24.7 85 +39 +39 очень
душно
1015.0 1013.0 +25.5 +32.3 0.5 0.8
ЮВ 13 17 км осадки на расстоянии {ливн. осадки} 3/1 300 м
[Cu Sc As trans Cs]
+31.2 +24.7 68 +44 +44 опасность
перегрева
1015.6 1013.6
ЮВ 13 20 км мгла 3/3 660 м
[Cu med, cong]
+30.0 +24.8 74 +43 +43 опасность
перегрева
1014.0 1012.0 +24.2 +32.2 0.0
В 12 20 км мгла 3/3 600 м
[Cu hum]
+29.7 +25.1 76 +43 +43 опасность
перегрева
1012.9 1010.9
В 9 12 км слаб. ливневой дождь 4/4 480 м
[Cu Sc]
+27.6 +24.5 83 +39 +39 очень
душно
1014.0 1012.0 +25.6 +32.2 0.0
В 8 15 км в посл. час ливневой дождь 3/3 480 м
[Cu Sc]
+26.7 +25.0 90 +38 +38 очень
душно
1015.6 1013.6
В 9 20 км мгла 1/1 480 м
[Cu med, cong]
+27.3 +24.8 86 +39 +39 очень
душно
1014.3 1012.3 +25.6 +32.2 3
В 10 20 км мгла 3/3 300 м
[Cu Sc As trans Cs]
+27.2 +24.5 85 +38 +38 очень
душно
1014.7 1012.7
В 12 16 км мгла 3/3 540 м
[Cu med, cong]
+28.9 +23.5 73 +39 +39 очень
душно
1016.0 1014.0 +26.4 +32.2 3.0
ЮВ 15 12 км пыль 1/1 600 м
[Cu Sc As op]
+30.7 +22.7 62 +40 +40 очень
душно
1016.5 1014.5
ЮВ 12 12 км пыль 1/1 600 м
[Cu hum]
+31.0 +22.8 62 +41 +41 опасность
перегрева
1014.7 1012.7 +26.4 +31.9
ЮВ 12 12 км пыль 1/1 600 м
[Cu hum]
+30.1 +23.2 67 +41 +41 опасность
перегрева
1013.1 1011.1
В 6 12 км пыль 1/1 480 м
[Cu hum]
+27.3 +23.3 79 +37 +37 очень
душно
1014.9 1012.9 +27.1 +31.9
В 8 12 км пыль {ливн. осадки} 1/1 480 м
[Cu hum]
+27.3 +23.2 78 +37 +37 очень
душно
1015.9 1013.9
В 6 12 км пыль {ливн. осадки} 1/1 480 м
[Cu hum Ci sp]
+26.9 +23.1 80 +36 +36 очень
душно
1014.8 1012.8 +26.9 +31.9 0.0
В 3 12 км пыль 4/4 300 м
[Cu Sc As trans Cs]
+25.9 +22.7 83 +34 +34 очень
душно
1014.8 1012.8
В 10 14 км пыль 3/3 540 м
[Cu Sc Ac trans]
+29.6 +23.2 69 +40 +40 очень
душно
1016.3 1014.3 +25.7 +31.9 0.0
В 14 16 км слаб. дождь 6/0 600 м
[Ac As Cs]
+31.5 +23.0 61 +42 +42 опасность
перегрева
1016.6 1014.6
ЮВ 10 10 км осадки на расстоянии 9/4 540 м
[Cu Sc Ac As Ci sp]
+24.0 +20 +21 1014.9 1012.9 +25.7 +32.9
В 11 15 км осадки на расстоянии 5/1 540 м
[Cu Sc Ac trans Ci sp]
+30.6 +24.0 68 +42 +42 опасность
перегрева
1013.9 1011.9
В 8 16 км пыль 5/1 540 м
[Cu hum Ci sp]
+27.3 +22.8 76 +36 +36 очень
душно
1014.9 1012.9 +25.7 +32.9
В 5 16 км пыль 4/0 300 м
[Ac As Cs]
+26.7 +22.6 78 +35 +35 очень
душно
1015.6 1013.6
В 3 16 км пыль 3/1 480 м
[Cu med, cong Ci sp]
+25.7 +22.5 83 +34 +34 очень
душно
1014.4 1012.4 +25.6 +32.9
В 5 16 км пыль 3/3 300 м
[Cu Sc As trans Cs]
+25.6 +22.5 83 +34 +34 очень
душно
1014.2 1012.2
ЮВ 9 20 км пыль {ливн. осадки} 3/1 540 м
[Cu hum Ci sp]
+29.4 +22.9 68 +39 +40 очень
душно
1015.5 1013.5 +24.7 +32.9 0.0 0.0
ЮВ 11 25 км 5/0 600 м
[Ac As Cs]
+30.8 +23.7 66 +42 +42 опасность
перегрева
1015.5 1013.5
ЮВ 10 25 км 9/5 720 м
[Cu Sc Ci sp]
+30.4 +23.6 67 +41 +42 опасность
перегрева
1013.5 1011.5 +24.7 +32.0
ЮВ 9 18 км осадки на расстоянии 9/0 300 м
[Ac As Cs]
+28.9 +24.4 77 +41 +41 опасность
перегрева
1013.0 1011.0
В 6 18 км слаб. дождь 9/5 480 м
[Cu Sc Ac trans Ci sp]
+27.5 +21.7 71 +35 +35 очень
душно
1014.5 1012.5 +24.7 +32.0
Местоположение метеостанции Краун-Пойнт (Тринидад и Тобаго): широта 11.15 долгота -60.83 высота над уровнем моря 6 м.
В архиве по умолчанию представлена погода в Краун-Пойнте за последнюю неделю. Архивные данные за месяц целиком и за предыдущие месяцы, начиная с января 2011 года, Вы можете получить, выбрав интересующий диапазон дат из раскрывающегося списка и нажав кнопку "Найти!".
*Определитесь, кто Вы:
Внимание! Время в таблицах - всемирное. Для получения местного времени необходимо прибавить поправку, которая равна -4 ч.
Смотрите также архив погоды в соседних городах и на ближайших метеорологических станциях:
Партнеры нашего сайта:      
Пояснения к столбцам:
  • Ветер - указаны скорость ветра в м/с - средняя за 10 мин, порывы в срок и между сроками (в фигурных скобках) и направление, откуда дует ветер: С - северный,
  • СВ - северо-восточный, В - восточный, ЮВ - юго-восточный, Ю - южный, ЮЗ - юго-западный, З - западный, СЗ - северо-западный.
  • Видимость - горизонтальная дальность видимости в метрах или километрах. При видимости от 1 до 10 км при отсутствии осадков обычно наблюдается дымка, при ухудшении видимости до 1 км и менее - туман. В сухую погоду видимость может ухудшаться дымом, пылью или мглою.
  • Явления - указаны атмосферные явления, наблюдавшиеся в срок или в последний час перед сроком; фигурными скобками обозначены явления, наблюдавшиеся между сроками (за 1-3 часа до срока); квадратными скобками обозначены град или гололедные отложения с указанием их диаметра в мм.
  • Облачность - указаны через наклонную черту общая и нижняя облачность в баллах и высота нижней границы облаков в метрах; квадратными скобками обозначены формы облаков: Ci - перистые, Cs - перисто-слоистые, Cc - перисто-кучевые, Ac - высококучевые, As - высокослоистые, Sc - слоисто-кучевые, Ns - слоисто-дождевые, Cu - кучевые, Cb - кучево-дождевые. Подробнее классификацию облаков см. в Атласе облаков (PDF).
  • T - Температура воздуха - температура, измеренная на высоте 2 м над землей.
  • Td - Температура точки росы - температура, при понижении до которой содержащийся в воздухе водяной пар достигнет насыщения.
  • f - Относительная влажность воздуха - влажноcть воздуха, измеренная на высоте 2 м над землей.
  • Te - Эффективная температура - температура, которую ощущает одетый по сезону человек в тени. Характеристика душности погоды. При расчете учитывается влияние влажности воздуха и скорости ветра на теплоощущения человека.
  • Tes - Эффективная температура на солнце - температура, которую ощущает человек, с поправкой на солнечный нагрев. Характеристика знойности погоды. Зависит от высоты солнца над горизонтом, облачности и скорости ветра. Ночью, в пасмурную погоду, а также при ветре 12 м/с и более поправка равна нулю.
  • P - Атмосферное давление - приведенное к уровню моря атмосферное давление.
  • Po - Атмосферное давление - измеренное на уровне метеостанции атмосферное давление.
  • Tmin - Минимальная температура - минимум температуры воздуха на высоте 2 м над землей.
  • Tmax - Максимальная температура - максимум температуры воздуха на высоте 2 м над землей.
  • R - Количество осадков - Количество выпавших осадков за период времени, мм. При наведении курсора мыши на число - период времени, за который выпало указанное количество осадков.
  • R24 - Количество осадков - Количество выпавших осадков за 24 часа, мм.
  • S - Снежный покров - Высота снежного покрова, см. При наведении курсора мыши на число - состояние снежного покрова и степень покрытия местности в баллах.